User: anonymous   Login
Location: Newark
(52.3333°N, 22.1833°E)
Time: 14:02:23
(UTC+00:00)
Language:

N. Korean satellite - Orbit

View from above orbital plane
View from above orbital plane
View from above satellite
View from above satellite

Ground track
Ground track

The orbit data is extracted from the following two-line orbital elements,

1 39026U 12072A   21125.65008925  .00001777  00000-0  62566-4 0  9999
2 39026  97.2436 119.5665 0035929 173.9925 186.1755 15.30026334466488
Epoch (UTC): 05 May 2021 15:36:07
Eccentricity: 0.0035929
inclination: 97.2436°
perigee height: 451 km
apogee height: 500 km
right ascension of ascending node: 119.5665°
argument of perigee: 173.9925°
revolutions per day: 15.30026334
mean anomaly at epoch: 186.1755°
orbit number at epoch: 46648

The dashed part of the orbit path shows where the satellite is in the earth's shadow,  

DLR